contact:dominique.lefevre@mio.osupytheas.fr, maurice.libes@osupytheas.fr, didier.mallarino@osupytheas.fr
Project:EMSO http://www.emso-fr.org/EMSO-France
Depth: 2436.0 m
Title:EMSO Ligure Ouest : Data MII capteur MICROCAT
DateTime_Computer,Latitude,Longitude,Temperature,Conductivity,Pressure,DateTime_Instrument
DateTime_Computer,Latitude,Longitude,degC,S m-1,dbar,DateTime_Instrument
2019-08-11T00:01:39Z,42.805,6.029,13.2991,4.60021,2469.853,2019-8-11T02:01:59Z
2019-08-11T00:04:42Z,42.805,6.029,13.2997,4.60019,2469.844,2019-8-11T02:05:02Z
2019-08-11T00:07:45Z,42.805,6.029,13.2979,4.60034,2469.89,2019-8-11T02:08:06Z
2019-08-11T00:10:48Z,42.805,6.029,13.2990,4.60053,2469.89,2019-8-11T02:11:09Z
2019-08-11T00:13:52Z,42.805,6.029,13.2978,4.60044,2469.83,2019-8-11T02:14:12Z
2019-08-11T00:16:55Z,42.805,6.029,13.2991,4.60036,2469.844,2019-8-11T02:17:15Z
2019-08-11T00:19:58Z,42.805,6.029,13.2989,4.60016,2469.876,2019-8-11T02:20:18Z
2019-08-11T00:23:01Z,42.805,6.029,13.2987,4.60035,2469.83,2019-8-11T02:23:22Z
2019-08-11T00:26:04Z,42.805,6.029,13.2978,4.60016,2469.89,2019-8-11T02:26:25Z
2019-08-11T00:29:08Z,42.805,6.029,13.2974,4.60020,2469.867,2019-8-11T02:29:28Z
2019-08-11T00:32:11Z,42.805,6.029,13.2982,4.60019,2469.876,2019-8-11T02:32:31Z
2019-08-11T00:35:14Z,42.805,6.029,13.2981,4.60028,2469.867,2019-8-11T02:35:34Z
2019-08-11T00:38:17Z,42.805,6.029,13.2977,4.60017,2469.876,2019-8-11T02:38:38Z
2019-08-11T00:41:20Z,42.805,6.029,13.2974,4.60014,2469.867,2019-8-11T02:41:41Z
2019-08-11T00:44:24Z,42.805,6.029,13.2983,4.60035,2469.853,2019-8-11T02:44:44Z
2019-08-11T00:47:27Z,42.805,6.029,13.2986,4.60028,2469.867,2019-8-11T02:47:47Z
2019-08-11T00:50:30Z,42.805,6.029,13.2975,4.60027,2469.876,2019-8-11T02:50:50Z
2019-08-11T00:53:33Z,42.805,6.029,13.2988,4.60024,2469.876,2019-8-11T02:53:54Z
2019-08-11T00:56:36Z,42.805,6.029,13.2975,4.60000,2469.853,2019-8-11T02:56:57Z
2019-08-11T00:59:40Z,42.805,6.029,13.2979,4.60015,2469.876,2019-8-11T03:00:00Z
2019-08-11T01:02:43Z,42.805,6.029,13.2983,4.60008,2469.853,2019-8-11T03:03:03Z
2019-08-11T01:05:46Z,42.805,6.029,13.2973,4.60036,2469.853,2019-8-11T03:06:06Z
2019-08-11T01:08:49Z,42.805,6.029,13.2976,4.60039,2469.853,2019-8-11T03:09:09Z
2019-08-11T01:11:52Z,42.805,6.029,13.2979,4.60036,2469.876,2019-8-11T03:12:13Z
2019-08-11T01:14:55Z,42.805,6.029,13.2971,4.60020,2469.853,2019-8-11T03:15:16Z
2019-08-11T01:17:59Z,42.805,6.029,13.2978,4.60019,2469.89,2019-8-11T03:18:19Z
2019-08-11T01:21:02Z,42.805,6.029,13.2976,4.60006,2469.867,2019-8-11T03:21:22Z
2019-08-11T01:24:05Z,42.805,6.029,13.2976,4.60000,2469.9,2019-8-11T03:24:25Z
2019-08-11T01:27:08Z,42.805,6.029,13.2984,4.60007,2469.853,2019-8-11T03:27:29Z
2019-08-11T01:30:12Z,42.805,6.029,13.2987,4.60031,2469.876,2019-8-11T03:30:32Z
2019-08-11T01:33:15Z,42.805,6.029,13.2983,4.60019,2469.853,2019-8-11T03:33:35Z
2019-08-11T01:36:18Z,42.805,6.029,13.2982,4.60034,2469.876,2019-8-11T03:36:38Z
2019-08-11T01:39:21Z,42.805,6.029,13.2983,4.60036,2469.876,2019-8-11T03:39:41Z
2019-08-11T01:42:24Z,42.805,6.029,13.2978,4.60036,2469.83,2019-8-11T03:42:45Z
2019-08-11T01:45:27Z,42.805,6.029,13.2980,4.60031,2469.9,2019-8-11T03:45:48Z
2019-08-11T01:48:31Z,42.805,6.029,13.2975,4.60024,2469.867,2019-8-11T03:48:51Z
2019-08-11T01:51:34Z,42.805,6.029,13.2968,4.60003,2469.914,2019-8-11T03:51:54Z
2019-08-11T01:54:37Z,42.805,6.029,13.2975,4.60023,2469.876,2019-8-11T03:54:57Z
2019-08-11T01:57:41Z,42.805,6.029,13.2976,4.60014,2469.867,2019-8-11T03:58:01Z
2019-08-11T02:00:44Z,42.805,6.029,13.2985,4.60021,2469.876,2019-8-11T04:01:04Z
2019-08-11T02:03:47Z,42.805,6.029,13.2969,4.60021,2469.83,2019-8-11T04:04:07Z
2019-08-11T02:06:50Z,42.805,6.029,13.2972,4.60003,2469.9,2019-8-11T04:07:11Z
2019-08-11T02:09:54Z,42.805,6.029,13.2971,4.59999,2469.876,2019-8-11T04:10:14Z
2019-08-11T02:12:57Z,42.805,6.029,13.2978,4.60010,2469.914,2019-8-11T04:13:17Z
2019-08-11T02:16:00Z,42.805,6.029,13.2976,4.59999,2469.9,2019-8-11T04:16:21Z
2019-08-11T02:19:03Z,42.805,6.029,13.2970,4.60011,2469.89,2019-8-11T04:19:24Z
2019-08-11T02:22:07Z,42.805,6.029,13.2971,4.60006,2469.914,2019-8-11T04:22:27Z
2019-08-11T02:25:10Z,42.805,6.029,13.2972,4.60006,2469.914,2019-8-11T04:25:30Z
2019-08-11T02:28:13Z,42.805,6.029,13.2979,4.60023,2469.937,2019-8-11T04:28:34Z
2019-08-11T02:31:17Z,42.805,6.029,13.2981,4.60016,2469.914,2019-8-11T04:31:37Z
2019-08-11T02:34:20Z,42.805,6.029,13.2979,4.60011,2469.9,2019-8-11T04:34:40Z
2019-08-11T02:37:23Z,42.805,6.029,13.2981,4.59998,2469.923,2019-8-11T04:37:44Z
2019-08-11T02:40:27Z,42.805,6.029,13.2976,4.60006,2469.937,2019-8-11T04:40:47Z
2019-08-11T02:43:30Z,42.805,6.029,13.2977,4.60014,2469.914,2019-8-11T04:43:50Z
2019-08-11T02:46:33Z,42.805,6.029,13.2976,4.60024,2469.914,2019-8-11T04:46:54Z
2019-08-11T02:49:37Z,42.805,6.029,13.2977,4.60006,2469.937,2019-8-11T04:49:57Z
2019-08-11T02:52:40Z,42.805,6.029,13.2981,4.60003,2469.914,2019-8-11T04:53:00Z
2019-08-11T02:55:43Z,42.805,6.029,13.2971,4.60002,2469.9,2019-8-11T04:56:04Z
2019-08-11T02:58:47Z,42.805,6.029,13.2968,4.60003,2469.914,2019-8-11T04:59:07Z
2019-08-11T03:01:50Z,42.805,6.029,13.2973,4.60001,2469.914,2019-8-11T05:02:11Z
2019-08-11T03:04:54Z,42.805,6.029,13.2981,4.60019,2469.947,2019-8-11T05:05:14Z
2019-08-11T03:07:57Z,42.805,6.029,13.2981,4.60026,2469.876,2019-8-11T05:08:17Z
2019-08-11T03:11:00Z,42.805,6.029,13.2979,4.60027,2469.9,2019-8-11T05:11:21Z
2019-08-11T03:14:04Z,42.805,6.029,13.2971,4.60001,2469.9,2019-8-11T05:14:24Z
2019-08-11T03:17:07Z,42.805,6.029,13.2977,4.60006,2469.984,2019-8-11T05:17:27Z
2019-08-11T03:20:10Z,42.805,6.029,13.2978,4.60006,2469.914,2019-8-11T05:20:31Z
2019-08-11T03:23:13Z,42.805,6.029,13.2970,4.59998,2469.923,2019-8-11T05:23:34Z
2019-08-11T03:26:17Z,42.805,6.029,13.2976,4.60005,2469.914,2019-8-11T05:26:37Z
2019-08-11T03:29:20Z,42.805,6.029,13.2981,4.60020,2469.937,2019-8-11T05:29:41Z
2019-08-11T03:32:24Z,42.805,6.029,13.2971,4.60001,2469.9,2019-8-11T05:32:44Z
2019-08-11T03:35:27Z,42.805,6.029,13.2970,4.60004,2469.937,2019-8-11T05:35:47Z
2019-08-11T03:38:30Z,42.805,6.029,13.2970,4.60011,2469.914,2019-8-11T05:38:51Z
2019-08-11T03:41:33Z,42.805,6.029,13.2977,4.60002,2469.89,2019-8-11T05:41:54Z
2019-08-11T03:44:37Z,42.805,6.029,13.2972,4.60005,2469.96,2019-8-11T05:44:57Z
2019-08-11T03:47:40Z,42.805,6.029,13.2974,4.60001,2469.89,2019-8-11T05:48:00Z
2019-08-11T03:50:43Z,42.805,6.029,13.2968,4.59978,2469.914,2019-8-11T05:51:04Z
2019-08-11T03:53:47Z,42.805,6.029,13.2990,4.59999,2469.9,2019-8-11T05:54:07Z
2019-08-11T03:56:50Z,42.805,6.029,13.2985,4.60003,2469.937,2019-8-11T05:57:11Z
2019-08-11T03:59:54Z,42.805,6.029,13.2966,4.59984,2469.914,2019-8-11T06:00:14Z
2019-08-11T04:02:57Z,42.805,6.029,13.2969,4.59993,2469.923,2019-8-11T06:03:17Z
2019-08-11T04:06:00Z,42.805,6.029,13.2977,4.59982,2469.923,2019-8-11T06:06:21Z
2019-08-11T04:09:03Z,42.805,6.029,13.2974,4.59993,2469.947,2019-8-11T06:09:24Z
2019-08-11T04:12:07Z,42.805,6.029,13.2972,4.59986,2469.937,2019-8-11T06:12:27Z
2019-08-11T04:15:10Z,42.805,6.029,13.2976,4.59994,2469.914,2019-8-11T06:15:31Z
2019-08-11T04:18:14Z,42.805,6.029,13.2972,4.60001,2469.937,2019-8-11T06:18:34Z
2019-08-11T04:21:17Z,42.805,6.029,13.2969,4.59995,2469.89,2019-8-11T06:21:37Z
2019-08-11T04:24:20Z,42.805,6.029,13.2987,4.60003,2469.914,2019-8-11T06:24:41Z
2019-08-11T04:27:23Z,42.805,6.029,13.2972,4.59992,2469.9,2019-8-11T06:27:44Z
2019-08-11T04:30:27Z,42.805,6.029,13.2974,4.59999,2469.9,2019-8-11T06:30:47Z
2019-08-11T04:33:30Z,42.805,6.029,13.2973,4.59999,2469.96,2019-8-11T06:33:50Z
2019-08-11T04:36:33Z,42.805,6.029,13.2969,4.59984,2469.9,2019-8-11T06:36:54Z
2019-08-11T04:39:37Z,42.805,6.029,13.2974,4.59986,2469.9,2019-8-11T06:39:57Z
2019-08-11T04:42:40Z,42.805,6.029,13.2967,4.59983,2469.947,2019-8-11T06:43:00Z
2019-08-11T04:45:43Z,42.805,6.029,13.2974,4.60007,2469.923,2019-8-11T06:46:04Z
2019-08-11T04:48:47Z,42.805,6.029,13.2971,4.59991,2469.89,2019-8-11T06:49:07Z
2019-08-11T04:51:50Z,42.805,6.029,13.2973,4.59999,2469.89,2019-8-11T06:52:10Z
2019-08-11T04:54:53Z,42.805,6.029,13.2976,4.59986,2469.9,2019-8-11T06:55:13Z
2019-08-11T04:57:56Z,42.805,6.029,13.2972,4.59992,2469.947,2019-8-11T06:58:17Z
2019-08-11T05:01:00Z,42.805,6.029,13.2969,4.59983,2469.9,2019-8-11T07:01:20Z
2019-08-11T05:04:03Z,42.805,6.029,13.2969,4.59987,2469.923,2019-8-11T07:04:23Z
2019-08-11T05:07:06Z,42.805,6.029,13.2967,4.59986,2469.9,2019-8-11T07:07:27Z
2019-08-11T05:10:10Z,42.805,6.029,13.2971,4.59991,2469.9,2019-8-11T07:10:30Z
2019-08-11T05:13:13Z,42.805,6.029,13.2967,4.59981,2469.923,2019-8-11T07:13:33Z
2019-08-11T05:16:16Z,42.805,6.029,13.2968,4.59985,2469.9,2019-8-11T07:16:37Z
2019-08-11T05:19:19Z,42.805,6.029,13.2974,4.59986,2469.914,2019-8-11T07:19:40Z
2019-08-11T05:22:23Z,42.805,6.029,13.2971,4.59979,2469.876,2019-8-11T07:22:43Z
2019-08-11T05:25:26Z,42.805,6.029,13.2967,4.59976,2469.876,2019-8-11T07:25:46Z
2019-08-11T05:28:29Z,42.805,6.029,13.2961,4.59976,2469.914,2019-8-11T07:28:50Z
2019-08-11T05:31:33Z,42.805,6.029,13.2968,4.59977,2469.89,2019-8-11T07:31:53Z
2019-08-11T05:34:36Z,42.805,6.029,13.2967,4.59975,2469.876,2019-8-11T07:34:56Z
2019-08-11T05:37:39Z,42.805,6.029,13.2965,4.59974,2469.923,2019-8-11T07:38:00Z
2019-08-11T05:40:43Z,42.805,6.029,13.2971,4.59977,2469.886,2019-8-11T07:41:03Z
2019-08-11T05:43:46Z,42.805,6.029,13.2967,4.59970,2469.9,2019-8-11T07:44:06Z
2019-08-11T05:46:49Z,42.805,6.029,13.2967,4.59970,2469.876,2019-8-11T07:47:10Z
2019-08-11T05:49:53Z,42.805,6.029,13.2966,4.59971,2469.923,2019-8-11T07:50:13Z
2019-08-11T05:52:56Z,42.805,6.029,13.2969,4.59976,2469.853,2019-8-11T07:53:16Z
2019-08-11T05:55:59Z,42.805,6.029,13.2967,4.59969,2469.876,2019-8-11T07:56:20Z
2019-08-11T05:59:03Z,42.805,6.029,13.2971,4.60000,2469.914,2019-8-11T07:59:23Z
2019-08-11T06:02:06Z,42.805,6.029,13.2973,4.59988,2469.937,2019-8-11T08:02:27Z
2019-08-11T06:05:09Z,42.805,6.029,13.2968,4.59969,2469.914,2019-8-11T08:05:30Z
2019-08-11T06:08:13Z,42.805,6.029,13.2968,4.59975,2469.914,2019-8-11T08:08:33Z
2019-08-11T06:11:16Z,42.805,6.029,13.2970,4.59984,2469.876,2019-8-11T08:11:36Z
2019-08-11T06:14:19Z,42.805,6.029,13.2978,4.59991,2469.844,2019-8-11T08:14:40Z
2019-08-11T06:17:23Z,42.805,6.029,13.2971,4.59976,2469.937,2019-8-11T08:17:43Z
2019-08-11T06:20:26Z,42.805,6.029,13.2968,4.59991,2469.89,2019-8-11T08:20:46Z
2019-08-11T06:23:29Z,42.805,6.029,13.2965,4.59981,2469.89,2019-8-11T08:23:50Z
2019-08-11T06:26:33Z,42.805,6.029,13.2971,4.59970,2469.914,2019-8-11T08:26:53Z
2019-08-11T06:29:36Z,42.805,6.029,13.2967,4.59976,2469.914,2019-8-11T08:29:56Z
2019-08-11T06:32:39Z,42.805,6.029,13.2965,4.59972,2469.89,2019-8-11T08:33:00Z
2019-08-11T06:35:43Z,42.805,6.029,13.2966,4.59976,2469.876,2019-8-11T08:36:03Z
2019-08-11T06:38:46Z,42.805,6.029,13.2967,4.59976,2469.9,2019-8-11T08:39:06Z
2019-08-11T06:41:49Z,42.805,6.029,13.2976,4.59990,2469.89,2019-8-11T08:42:10Z
2019-08-11T06:44:53Z,42.805,6.029,13.2979,4.59998,2469.853,2019-8-11T08:45:13Z
2019-08-11T06:47:56Z,42.805,6.029,13.2963,4.59980,2469.914,2019-8-11T08:48:16Z
2019-08-11T06:50:59Z,42.805,6.029,13.2970,4.59984,2469.853,2019-8-11T08:51:20Z
2019-08-11T06:54:03Z,42.805,6.029,13.2967,4.59982,2469.867,2019-8-11T08:54:23Z
2019-08-11T06:57:06Z,42.805,6.029,13.2968,4.59985,2469.914,2019-8-11T08:57:26Z
2019-08-11T07:00:09Z,42.805,6.029,13.2968,4.59978,2469.853,2019-8-11T09:00:30Z
2019-08-11T07:03:13Z,42.805,6.029,13.2966,4.59973,2469.914,2019-8-11T09:03:33Z
2019-08-11T07:06:16Z,42.805,6.029,13.2963,4.59971,2469.853,2019-8-11T09:06:36Z
2019-08-11T07:09:19Z,42.805,6.029,13.2967,4.59976,2469.876,2019-8-11T09:09:40Z
2019-08-11T07:12:23Z,42.805,6.029,13.2967,4.59971,2469.867,2019-8-11T09:12:43Z
2019-08-11T07:15:26Z,42.805,6.029,13.2961,4.59972,2469.89,2019-8-11T09:15:46Z
2019-08-11T07:18:29Z,42.805,6.029,13.2966,4.59973,2469.876,2019-8-11T09:18:50Z
2019-08-11T07:21:32Z,42.805,6.029,13.2964,4.59971,2469.867,2019-8-11T09:21:53Z
2019-08-11T07:24:36Z,42.805,6.029,13.2968,4.59979,2469.876,2019-8-11T09:24:56Z
2019-08-11T07:27:40Z,42.805,6.029,13.2961,4.59966,2469.914,2019-8-11T09:28:00Z
2019-08-11T07:30:43Z,42.805,6.029,13.2967,4.59970,2469.876,2019-8-11T09:31:03Z
2019-08-11T07:33:46Z,42.805,6.029,13.2965,4.59968,2469.867,2019-8-11T09:34:07Z
2019-08-11T07:36:49Z,42.805,6.029,13.2966,4.59973,2469.876,2019-8-11T09:37:10Z
2019-08-11T07:39:53Z,42.805,6.029,13.2964,4.59982,2469.853,2019-8-11T09:40:13Z
2019-08-11T07:42:56Z,42.805,6.029,13.2967,4.59973,2469.89,2019-8-11T09:43:16Z
2019-08-11T07:45:59Z,42.805,6.029,13.2967,4.59968,2469.853,2019-8-11T09:46:20Z
2019-08-11T07:49:03Z,42.805,6.029,13.2966,4.59973,2469.876,2019-8-11T09:49:23Z
2019-08-11T07:52:06Z,42.805,6.029,13.2964,4.59972,2469.853,2019-8-11T09:52:26Z
2019-08-11T07:55:09Z,42.805,6.029,13.2965,4.59983,2469.867,2019-8-11T09:55:30Z
2019-08-11T07:58:13Z,42.805,6.029,13.2972,4.59975,2469.876,2019-8-11T09:58:33Z
2019-08-11T08:01:16Z,42.805,6.029,13.2965,4.59972,2469.83,2019-8-11T10:01:36Z
2019-08-11T08:04:19Z,42.805,6.029,13.2967,4.59974,2469.876,2019-8-11T10:04:40Z
2019-08-11T08:07:22Z,42.805,6.029,13.2968,4.59978,2469.853,2019-8-11T10:07:43Z
2019-08-11T08:10:26Z,42.805,6.029,13.2964,4.59970,2469.853,2019-8-11T10:10:46Z
2019-08-11T08:13:29Z,42.805,6.029,13.2965,4.59968,2469.83,2019-8-11T10:13:49Z
2019-08-11T08:16:32Z,42.805,6.029,13.2964,4.59971,2469.867,2019-8-11T10:16:53Z
2019-08-11T08:19:36Z,42.805,6.029,13.2961,4.59968,2469.853,2019-8-11T10:19:56Z
2019-08-11T08:22:39Z,42.805,6.029,13.2971,4.59972,2469.821,2019-8-11T10:22:59Z
2019-08-11T08:25:42Z,42.805,6.029,13.2969,4.59973,2469.853,2019-8-11T10:26:03Z
2019-08-11T08:28:46Z,42.805,6.029,13.2967,4.59970,2469.83,2019-8-11T10:29:06Z
2019-08-11T08:31:49Z,42.805,6.029,13.2964,4.59991,2469.83,2019-8-11T10:32:09Z
2019-08-11T08:34:52Z,42.805,6.029,13.2966,4.59985,2469.83,2019-8-11T10:35:12Z
2019-08-11T08:37:55Z,42.805,6.029,13.2973,4.59984,2469.844,2019-8-11T10:38:16Z
2019-08-11T08:40:58Z,42.805,6.029,13.2966,4.59995,2469.853,2019-8-11T10:41:19Z
2019-08-11T08:44:02Z,42.805,6.029,13.2974,4.59986,2469.83,2019-8-11T10:44:22Z
2019-08-11T08:47:05Z,42.805,6.029,13.2970,4.59983,2469.867,2019-8-11T10:47:25Z
2019-08-11T08:50:08Z,42.805,6.029,13.2974,4.59996,2469.853,2019-8-11T10:50:28Z
2019-08-11T08:53:11Z,42.805,6.029,13.2966,4.59976,2469.844,2019-8-11T10:53:32Z
2019-08-11T08:56:14Z,42.805,6.029,13.2964,4.59973,2469.89,2019-8-11T10:56:35Z
2019-08-11T08:59:18Z,42.805,6.029,13.2966,4.59974,2469.83,2019-8-11T10:59:38Z
2019-08-11T09:02:21Z,42.805,6.029,13.2964,4.59971,2469.844,2019-8-11T11:02:41Z
2019-08-11T09:05:24Z,42.805,6.029,13.2976,4.59994,2469.806,2019-8-11T11:05:44Z
2019-08-11T09:08:27Z,42.805,6.029,13.2982,4.59983,2469.83,2019-8-11T11:08:48Z
2019-08-11T09:11:30Z,42.805,6.029,13.2973,4.59986,2469.83,2019-8-11T11:11:51Z
2019-08-11T09:14:34Z,42.805,6.029,13.2969,4.59986,2469.867,2019-8-11T11:14:54Z
2019-08-11T09:17:37Z,42.805,6.029,13.2964,4.59976,2469.83,2019-8-11T11:17:57Z
2019-08-11T09:20:40Z,42.805,6.029,13.2967,4.59978,2469.867,2019-8-11T11:21:00Z
2019-08-11T09:23:43Z,42.805,6.029,13.2976,4.59991,2469.844,2019-8-11T11:24:04Z
2019-08-11T09:26:46Z,42.805,6.029,13.2976,4.59997,2469.821,2019-8-11T11:27:07Z
2019-08-11T09:29:50Z,42.805,6.029,13.2976,4.60003,2469.867,2019-8-11T11:30:10Z
2019-08-11T09:32:53Z,42.805,6.029,13.2973,4.59978,2469.797,2019-8-11T11:33:13Z
2019-08-11T09:35:56Z,42.805,6.029,13.2969,4.59983,2469.844,2019-8-11T11:36:16Z
2019-08-11T09:38:59Z,42.805,6.029,13.2967,4.59968,2469.844,2019-8-11T11:39:20Z
2019-08-11T09:42:02Z,42.805,6.029,13.2975,4.59992,2469.821,2019-8-11T11:42:23Z
2019-08-11T09:45:06Z,42.805,6.029,13.2976,4.60002,2469.821,2019-8-11T11:45:26Z
2019-08-11T09:48:09Z,42.805,6.029,13.2976,4.59978,2469.821,2019-8-11T11:48:29Z
2019-08-11T09:51:12Z,42.805,6.029,13.2974,4.60001,2469.83,2019-8-11T11:51:32Z
2019-08-11T09:54:15Z,42.805,6.029,13.2978,4.59992,2469.844,2019-8-11T11:54:36Z
2019-08-11T09:57:19Z,42.805,6.029,13.2975,4.59978,2469.821,2019-8-11T11:57:39Z
2019-08-11T10:00:22Z,42.805,6.029,13.2975,4.59996,2469.83,2019-8-11T12:00:42Z
2019-08-11T10:03:25Z,42.805,6.029,13.2975,4.59992,2469.83,2019-8-11T12:03:46Z
2019-08-11T10:06:28Z,42.805,6.029,13.2975,4.60004,2469.821,2019-8-11T12:06:49Z
2019-08-11T10:09:32Z,42.805,6.029,13.2977,4.59999,2469.783,2019-8-11T12:09:52Z
2019-08-11T10:12:35Z,42.805,6.029,13.2968,4.59981,2469.821,2019-8-11T12:12:55Z
2019-08-11T10:15:38Z,42.805,6.029,13.2968,4.59998,2469.806,2019-8-11T12:15:58Z
2019-08-11T10:18:41Z,42.805,6.029,13.2975,4.59988,2469.797,2019-8-11T12:19:02Z
2019-08-11T10:21:44Z,42.805,6.029,13.2982,4.60005,2469.806,2019-8-11T12:22:05Z
2019-08-11T10:24:48Z,42.805,6.029,13.2986,4.59999,2469.806,2019-8-11T12:25:08Z
2019-08-11T10:27:51Z,42.805,6.029,13.2982,4.59999,2469.844,2019-8-11T12:28:11Z
2019-08-11T10:30:54Z,42.805,6.029,13.2984,4.59995,2469.83,2019-8-11T12:31:14Z
2019-08-11T10:33:57Z,42.805,6.029,13.2984,4.59993,2469.797,2019-8-11T12:34:18Z
2019-08-11T10:37:00Z,42.805,6.029,13.2981,4.59991,2469.783,2019-8-11T12:37:21Z
2019-08-11T10:40:04Z,42.805,6.029,13.2987,4.60005,2469.76,2019-8-11T12:40:24Z
2019-08-11T10:43:07Z,42.805,6.029,13.2982,4.60014,2469.821,2019-8-11T12:43:27Z
2019-08-11T10:46:10Z,42.805,6.029,13.2964,4.59978,2469.797,2019-8-11T12:46:30Z
2019-08-11T10:49:13Z,42.805,6.029,13.2973,4.60024,2469.83,2019-8-11T12:49:34Z
2019-08-11T10:52:17Z,42.805,6.029,13.2986,4.59998,2469.821,2019-8-11T12:52:37Z
2019-08-11T10:55:20Z,42.805,6.029,13.2974,4.59998,2469.797,2019-8-11T12:55:40Z
2019-08-11T10:58:23Z,42.805,6.029,13.2978,4.60006,2469.844,2019-8-11T12:58:43Z
2019-08-11T11:01:26Z,42.805,6.029,13.2972,4.59985,2469.821,2019-8-11T13:01:46Z
2019-08-11T11:04:29Z,42.805,6.029,13.2971,4.59993,2469.783,2019-8-11T13:04:50Z
2019-08-11T11:07:33Z,42.805,6.029,13.2979,4.60003,2469.797,2019-8-11T13:07:53Z
2019-08-11T11:10:36Z,42.805,6.029,13.2990,4.60010,2469.821,2019-8-11T13:10:56Z
2019-08-11T11:13:39Z,42.805,6.029,13.2983,4.59998,2469.797,2019-8-11T13:13:59Z
2019-08-11T11:16:42Z,42.805,6.029,13.2992,4.60012,2469.806,2019-8-11T13:17:03Z
2019-08-11T11:19:45Z,42.805,6.029,13.2982,4.59981,2469.783,2019-8-11T13:20:06Z
2019-08-11T11:22:49Z,42.805,6.029,13.2974,4.59988,2469.783,2019-8-11T13:23:09Z
2019-08-11T11:25:52Z,42.805,6.029,13.2988,4.60019,2469.797,2019-8-11T13:26:12Z
2019-08-11T11:28:55Z,42.805,6.029,13.2992,4.60020,2469.844,2019-8-11T13:29:15Z
2019-08-11T11:31:58Z,42.805,6.029,13.2993,4.60017,2469.783,2019-8-11T13:32:18Z
2019-08-11T11:35:02Z,42.805,6.029,13.3002,4.60016,2469.821,2019-8-11T13:35:22Z
2019-08-11T11:38:05Z,42.805,6.029,13.2988,4.60021,2469.806,2019-8-11T13:38:25Z
2019-08-11T11:41:08Z,42.805,6.029,13.3009,4.60004,2469.806,2019-8-11T13:41:28Z
2019-08-11T11:44:11Z,42.805,6.029,13.2983,4.60028,2469.797,2019-8-11T13:44:32Z
2019-08-11T11:47:14Z,42.805,6.029,13.2994,4.60019,2469.797,2019-8-11T13:47:35Z
2019-08-11T11:50:18Z,42.805,6.029,13.2997,4.60010,2469.821,2019-8-11T13:50:38Z
2019-08-11T11:53:21Z,42.805,6.029,13.2988,4.60036,2469.806,2019-8-11T13:53:41Z
2019-08-11T11:56:24Z,42.805,6.029,13.2996,4.60019,2469.783,2019-8-11T13:56:44Z
2019-08-11T11:59:27Z,42.805,6.029,13.2999,4.60019,2469.783,2019-8-11T13:59:48Z
2019-08-11T12:02:31Z,42.805,6.029,13.2990,4.60033,2469.844,2019-8-11T14:02:51Z
2019-08-11T12:05:34Z,42.805,6.029,13.3008,4.60036,2469.797,2019-8-11T14:05:54Z
2019-08-11T12:08:37Z,42.805,6.029,13.3014,4.60033,2469.844,2019-8-11T14:08:57Z
2019-08-11T12:11:40Z,42.805,6.029,13.2990,4.60052,2469.783,2019-8-11T14:12:01Z
2019-08-11T12:14:43Z,42.805,6.029,13.2990,4.60012,2469.83,2019-8-11T14:15:04Z
2019-08-11T12:17:47Z,42.805,6.029,13.2995,4.60028,2469.806,2019-8-11T14:18:07Z
2019-08-11T12:20:50Z,42.805,6.029,13.3010,4.60029,2469.806,2019-8-11T14:21:10Z
2019-08-11T12:23:53Z,42.805,6.029,13.3004,4.60000,2469.797,2019-8-11T14:24:13Z
2019-08-11T12:26:56Z,42.805,6.029,13.2979,4.59999,2469.821,2019-8-11T14:27:17Z
2019-08-11T12:29:59Z,42.805,6.029,13.3015,4.60029,2469.844,2019-8-11T14:30:20Z
2019-08-11T12:33:03Z,42.805,6.029,13.3006,4.60019,2469.821,2019-8-11T14:33:23Z
2019-08-11T12:36:06Z,42.805,6.029,13.2999,4.60052,2469.806,2019-8-11T14:36:26Z
2019-08-11T12:39:09Z,42.805,6.029,13.2980,4.60053,2469.83,2019-8-11T14:39:30Z
2019-08-11T12:42:12Z,42.805,6.029,13.3028,4.59989,2469.797,2019-8-11T14:42:33Z
2019-08-11T12:45:16Z,42.805,6.029,13.2991,4.59993,2469.844,2019-8-11T14:45:36Z
2019-08-11T12:48:19Z,42.805,6.029,13.2983,4.60001,2469.844,2019-8-11T14:48:39Z
2019-08-11T12:51:22Z,42.805,6.029,13.2968,4.60001,2469.844,2019-8-11T14:51:42Z
2019-08-11T12:54:25Z,42.805,6.029,13.2993,4.60000,2469.844,2019-8-11T14:54:46Z
2019-08-11T12:57:29Z,42.805,6.029,13.2983,4.59976,2469.83,2019-8-11T14:57:49Z
2019-08-11T13:00:32Z,42.805,6.029,13.3014,4.59988,2469.806,2019-8-11T15:00:52Z
2019-08-11T13:03:35Z,42.805,6.029,13.2983,4.59999,2469.806,2019-8-11T15:03:55Z
2019-08-11T13:06:38Z,42.805,6.029,13.2989,4.60009,2469.83,2019-8-11T15:06:58Z
2019-08-11T13:09:41Z,42.805,6.029,13.3011,4.59984,2469.83,2019-8-11T15:10:02Z
2019-08-11T13:12:45Z,42.805,6.029,13.2993,4.59996,2469.89,2019-8-11T15:13:05Z
2019-08-11T13:15:48Z,42.805,6.029,13.2986,4.59990,2469.853,2019-8-11T15:16:08Z
2019-08-11T13:18:51Z,42.805,6.029,13.2991,4.59997,2469.876,2019-8-11T15:19:12Z
2019-08-11T13:21:55Z,42.805,6.029,13.2986,4.59992,2469.867,2019-8-11T15:22:15Z
2019-08-11T13:24:58Z,42.805,6.029,13.2993,4.59991,2469.867,2019-8-11T15:25:18Z
2019-08-11T13:28:01Z,42.805,6.029,13.2998,4.59989,2469.876,2019-8-11T15:28:21Z
2019-08-11T13:31:04Z,42.805,6.029,13.2997,4.59984,2469.83,2019-8-11T15:31:25Z
2019-08-11T13:34:08Z,42.805,6.029,13.3005,4.60002,2469.867,2019-8-11T15:34:28Z
2019-08-11T13:37:11Z,42.805,6.029,13.2982,4.59975,2469.853,2019-8-11T15:37:32Z
2019-08-11T13:40:14Z,42.805,6.029,13.2980,4.59983,2469.867,2019-8-11T15:40:35Z
2019-08-11T13:43:18Z,42.805,6.029,13.2998,4.59984,2469.89,2019-8-11T15:43:38Z
2019-08-11T13:46:21Z,42.805,6.029,13.2990,4.59973,2469.853,2019-8-11T15:46:41Z
2019-08-11T13:49:24Z,42.805,6.029,13.3004,4.59984,2469.867,2019-8-11T15:49:45Z
2019-08-11T13:52:28Z,42.805,6.029,13.3004,4.59979,2469.867,2019-8-11T15:52:48Z
2019-08-11T13:55:31Z,42.805,6.029,13.2984,4.59991,2469.89,2019-8-11T15:55:52Z
2019-08-11T13:58:35Z,42.805,6.029,13.2986,4.59976,2469.876,2019-8-11T15:58:55Z
2019-08-11T14:01:38Z,42.805,6.029,13.2992,4.59988,2469.853,2019-8-11T16:01:58Z
2019-08-11T14:04:41Z,42.805,6.029,13.2985,4.59977,2469.89,2019-8-11T16:05:02Z
2019-08-11T14:07:44Z,42.805,6.029,13.2990,4.59988,2469.853,2019-8-11T16:08:05Z
2019-08-11T14:10:48Z,42.805,6.029,13.2980,4.60008,2469.9,2019-8-11T16:11:08Z
2019-08-11T14:13:51Z,42.805,6.029,13.2983,4.59991,2469.89,2019-8-11T16:14:12Z
2019-08-11T14:16:54Z,42.805,6.029,13.3006,4.59996,2469.914,2019-8-11T16:17:15Z
2019-08-11T14:19:58Z,42.805,6.029,13.3002,4.59996,2469.9,2019-8-11T16:20:18Z
2019-08-11T14:23:01Z,42.805,6.029,13.2985,4.60007,2469.89,2019-8-11T16:23:21Z
2019-08-11T14:26:04Z,42.805,6.029,13.3000,4.59995,2469.937,2019-8-11T16:26:25Z
2019-08-11T14:29:08Z,42.805,6.029,13.2995,4.59988,2469.923,2019-8-11T16:29:28Z
2019-08-11T14:32:11Z,42.805,6.029,13.3000,4.60000,2469.876,2019-8-11T16:32:31Z
2019-08-11T14:35:14Z,42.805,6.029,13.3004,4.59995,2469.89,2019-8-11T16:35:35Z
2019-08-11T14:38:17Z,42.805,6.029,13.2989,4.59987,2469.96,2019-8-11T16:38:38Z
2019-08-11T14:41:21Z,42.805,6.029,13.2986,4.59988,2469.914,2019-8-11T16:41:41Z
2019-08-11T14:44:24Z,42.805,6.029,13.3000,4.59986,2469.96,2019-8-11T16:44:45Z
2019-08-11T14:47:27Z,42.805,6.029,13.2990,4.59987,2469.914,2019-8-11T16:47:48Z
2019-08-11T14:50:31Z,42.805,6.029,13.2984,4.59976,2469.937,2019-8-11T16:50:51Z
2019-08-11T14:53:34Z,42.805,6.029,13.2988,4.59973,2469.914,2019-8-11T16:53:55Z
2019-08-11T14:56:38Z,42.805,6.029,13.2985,4.59981,2469.937,2019-8-11T16:56:58Z
2019-08-11T14:59:41Z,42.805,6.029,13.3006,4.59990,2469.914,2019-8-11T17:00:01Z
2019-08-11T15:02:44Z,42.805,6.029,13.3000,4.59999,2469.937,2019-8-11T17:03:05Z
2019-08-11T15:05:47Z,42.805,6.029,13.2991,4.59992,2469.923,2019-8-11T17:06:08Z
2019-08-11T15:08:51Z,42.805,6.029,13.3014,4.59985,2469.937,2019-8-11T17:09:11Z
2019-08-11T15:11:54Z,42.805,6.029,13.3002,4.59976,2469.914,2019-8-11T17:12:14Z
2019-08-11T15:14:57Z,42.805,6.029,13.2995,4.59991,2469.96,2019-8-11T17:15:18Z